VK2HN Weather Reports


time (UTC)temp
C
wind
direction
speed
KPH
gust
KPH
rain 1hr
cm
rain 24hr
cm
rain mn
cm
humidity
%
barometer
mb
20260504174543 14 141 0.0 0.0 0.00 0.00 0.00 98 1017.1
20260504174043 14 141 0.0 0.0 0.00 0.00 0.00 98 1017.0
20260504173543 14 141 0.0 0.0 0.00 0.00 0.00 98 1017.0
20260504173043 14 141 0.0 0.0 0.00 0.00 0.00 98 1016.8
20260504172543 14 141 0.0 0.0 0.00 0.00 0.00 98 1017.0
20260504172043 14 141 0.0 0.0 0.00 0.00 0.00 98 1017.0
20260504171543 14 141 0.0 0.0 0.00 0.00 0.00 98 1017.0
20260504171043 14 141 0.0 0.0 0.00 0.00 0.00 98 1017.0
20260504170543 14 141 0.0 0.0 0.00 0.00 0.00 98 1017.0
20260504151043 16 141 0.0 0.0 0.00 0.00 0.00 97 1017.0
20260504150543 16 141 0.0 0.0 0.00 0.00 0.00 97 1016.7
20260504141043 17 142 0.0 0.0 0.00 0.00 0.00 96 1016.9
20260504140543 17 142 0.0 0.0 0.00 0.00 0.00 96 1016.7
20260504130543 16 142 1.6 3.2 0.00 0.00 0.00 96 1016.9
20260504110544 17 104 0.0 0.0 0.00 0.00 0.00 92 1016.1
20260504100544 17 102 0.0 0.0 0.00 0.00 0.00 91 1015.4
20260504081544 18 71 0.0 0.0 0.00 0.00 0.00 95 1015.3
20260504081044 18 71 0.0 0.0 0.00 0.00 0.00 95 1015.2
20260504080544 18 71 0.0 0.0 0.00 0.00 0.00 95 1015.3
20260504050544 20 9 1.6 6.4 0.00 0.00 0.00 90 1014.9
20260504045544 19 138 0.0 3.2 0.00 0.00 0.00 92 1014.9
20260504045044 19 16 0.0 8.0 0.00 0.00 0.00 92 1015.0
20260504044544 19 53 0.0 4.8 0.00 0.00 0.00 93 1015.0
20260504044044 19 183 1.6 3.2 0.00 0.00 0.00 93 1015.1
20260504043544 19 108 0.0 4.8 0.00 0.00 0.00 94 1015.2
20260504043044 18 108 0.0 4.8 0.00 0.00 0.00 94 1015.2
20260504042544 18 119 0.0 4.8 0.00 0.00 0.00 94 1015.1
20260504042044 18 121 0.0 0.0 0.00 0.00 0.00 95 1015.2
20260504041544 18 122 1.6 6.4 0.00 0.00 0.00 95 1015.3
20260504041044 18 88 0.0 3.2 0.00 0.00 0.00 95 1015.2
20260504040544 18 88 0.0 3.2 0.00 0.00 0.00 95 1015.5
20260504040044 18 89 0.0 1.6 0.00 0.00 0.00 96 1015.4
20260504035544 18 89 0.0 1.6 0.00 0.00 0.00 96 1015.5
20260504035044 18 88 0.0 3.2 0.00 0.00 0.00 97 1015.6
20260504034544 18 85 0.0 0.0 0.00 0.00 0.00 97 1015.5
20260504034044 18 84 0.0 6.4 0.00 0.00 0.00 97 1015.7
20260504033544 18 117 0.0 0.0 0.00 0.00 0.00 98 1015.6
20260504033044 18 117 0.0 1.6 0.00 0.00 0.00 97 1015.7
20260504032544 18 118 0.0 3.2 0.00 0.00 0.00 98 1016.1
20260504032044 18 117 0.0 3.2 0.00 0.00 0.00 98 1016.1
20260504031544 17 117 0.0 0.0 0.00 0.00 0.00 98 1016.0
20260504031044 17 117 0.0 1.6 0.00 0.00 0.00 98 1016.1
20260504030544 17 115 0.0 1.6 0.00 0.00 0.00 98 1016.2
20260504030044 17 116 0.0 3.2 0.00 0.00 0.00 98 1016.2
20260504025544 17 116 0.0 0.0 0.00 0.00 0.00 98 1016.4
20260504025044 17 116 0.0 3.2 0.00 0.00 0.00 98 1016.4
20260504024544 17 116 0.0 6.4 0.00 0.00 0.00 98 1016.6
20260504024044 17 135 0.0 0.0 0.00 0.00 0.00 98 1016.7
20260504023544 17 135 0.0 0.0 0.00 0.00 0.00 98 1016.8
20260504023044 17 121 0.0 0.0 0.00 0.00 0.00 98 1016.9
20260504022544 17 121 0.0 0.0 0.00 0.00 0.00 98 1017.1
20260504022044 17 121 0.0 0.0 0.00 0.00 0.00 98 1017.4
20260504021544 17 121 0.0 0.0 0.00 0.00 0.00 98 1017.4
20260504021044 17 121 0.0 1.6 0.00 0.00 0.00 98 1017.5
20260504020544 17 121 0.0 0.0 0.00 0.00 0.00 98 1017.7
20260504020044 17 121 0.0 0.0 0.00 0.00 0.00 98 1017.9
20260504015544 17 121 0.0 0.0 0.00 0.00 0.00 98 1017.8
20260504015044 17 121 0.0 0.0 0.00 0.00 0.00 98 1017.8
20260504014544 17 121 0.0 0.0 0.00 0.00 0.00 98 1017.8
20260504014044 17 121 0.0 0.0 0.00 0.00 0.00 98 1018.0
20260504013544 17 121 0.0 0.0 0.00 0.00 0.00 98 1017.9
20260504013044 17 121 0.0 0.0 0.00 0.00 0.00 98 1018.1
20260504012544 17 121 0.0 0.0 0.00 0.00 0.00 98 1018.2
20260504012044 17 121 0.0 0.0 0.00 0.00 0.00 98 1018.3
20260504011544 17 121 0.0 0.0 0.00 0.00 0.00 98 1018.2
20260504011044 17 121 0.0 0.0 0.00 0.00 0.00 98 1018.4
20260504010544 17 121 0.0 0.0 0.00 0.00 0.00 98 1018.5
20260504010044 17 121 0.0 0.0 0.00 0.00 0.00 98 1018.6
20260504005545 17 121 0.0 0.0 0.00 0.00 0.00 98 1018.6
20260504005045 17 121 0.0 0.0 0.00 0.00 0.00 98 1018.6
20260504004545 17 121 0.0 0.0 0.00 0.00 0.00 98 1018.6
20260504004045 17 121 0.0 0.0 0.00 0.00 0.00 98 1018.5
20260504003545 17 121 0.0 0.0 0.00 0.00 0.00 98 1018.5
20260504003045 17 121 0.0 0.0 0.00 0.00 0.00 98 1018.3
20260504002545 17 121 0.0 0.0 0.00 0.00 0.00 98 1018.4
20260504002045 17 121 0.0 0.0 0.00 0.00 0.00 98 1018.4
20260504001545 17 121 0.0 0.0 0.00 0.00 0.00 98 1018.4
20260504001045 16 121 0.0 0.0 0.00 0.00 0.00 98 1018.2
20260504000545 16 119 0.0 0.0 0.00 0.00 0.00 98 1018.2
20260504000045 16 120 0.0 0.0 0.00 0.00 0.00 98 1018.2
20260503235545 16 119 0.0 0.0 0.00 0.00 0.00 99 1018.2
20260503235045 16 119 0.0 0.0 0.00 0.00 0.00 98 1018.1
20260503234545 16 119 0.0 0.0 0.00 0.00 0.00 98 1018.2
20260503234045 16 119 0.0 0.0 0.00 0.00 0.00 98 1018.1
20260503233545 16 119 0.0 0.0 0.00 0.00 0.00 98 1018.1
20260503233045 16 119 0.0 0.0 0.00 0.00 0.00 99 1018.1
20260503232545 16 119 0.0 0.0 0.00 0.00 0.00 98 1018.2
20260503232045 16 120 0.0 0.0 0.00 0.00 0.00 98 1018.2
20260503231545 16 120 0.0 0.0 0.00 0.00 0.00 98 1018.4
20260503231045 16 120 0.0 0.0 0.00 0.00 0.00 98 1018.4
20260503230545 16 120 0.0 0.0 0.00 0.00 0.00 98 1018.5
20260503230045 16 120 0.0 0.0 0.00 0.00 0.00 98 1018.6
20260503225545 16 120 0.0 0.0 0.00 0.00 0.00 99 1018.7
20260503225045 16 120 0.0 3.2 0.00 0.00 0.00 99 1018.6
20260503224545 16 120 0.0 0.0 0.00 0.00 0.00 99 1018.5
20260503224045 16 120 0.0 0.0 0.00 0.00 0.00 99 1018.4
20260503223545 16 119 0.0 0.0 0.00 0.00 0.00 99 1018.2
20260503223045 15 119 0.0 0.0 0.00 0.00 0.00 99 1018.1
20260503222545 15 119 0.0 0.0 0.00 0.00 0.00 99 1018.1
20260503222045 15 119 0.0 0.0 0.00 0.00 0.00 99 1018.0
20260503221545 15 119 0.0 0.0 0.00 0.00 0.00 99 1017.9
20260503221045 15 119 0.0 0.0 0.00 0.00 0.00 99 1017.7
20260503220545 15 119 0.0 0.0 0.00 0.00 0.00 99 1017.7
20260503220045 15 119 0.0 0.0 0.00 0.00 0.00 99 1017.7
20260503215545 15 119 0.0 0.0 0.00 0.00 0.00 99 1017.6
20260503215045 15 119 0.0 0.0 0.00 0.00 0.00 99 1017.6
20260503214545 15 119 0.0 0.0 0.00 0.00 0.00 99 1017.7
20260503214045 15 119 0.0 0.0 0.00 0.00 0.00 99 1017.6
20260503213545 14 119 0.0 0.0 0.00 0.00 0.00 99 1017.6
20260503213045 14 119 0.0 0.0 0.00 0.00 0.00 99 1017.5
20260503212545 14 119 0.0 0.0 0.00 0.00 0.00 99 1017.4
20260503212045 14 119 0.0 0.0 0.00 0.00 0.00 98 1017.4
20260503211545 14 119 0.0 0.0 0.00 0.00 0.00 98 1017.5
20260503211045 14 119 0.0 0.0 0.00 0.00 0.00 98 1017.5
20260503210545 14 119 0.0 3.2 0.00 0.00 0.00 99 1017.2
20260503210045 14 119 0.0 0.0 0.00 0.00 0.00 99 1017.3
20260503205545 13 119 0.0 0.0 0.00 0.00 0.00 98 1017.5
20260503205045 13 119 0.0 0.0 0.00 0.00 0.00 98 1017.3
20260503204545 13 119 0.0 0.0 0.00 0.00 0.00 98 1017.3
20260503204045 13 119 0.0 0.0 0.00 0.00 0.00 98 1017.1
20260503203545 13 119 0.0 0.0 0.00 0.00 0.00 98 1017.2
20260503203045 13 119 0.0 0.0 0.00 0.00 0.00 98 1017.1
20260503202545 13 119 0.0 0.0 0.00 0.00 0.00 98 1017.1
20260503202045 13 119 0.0 0.0 0.00 0.00 0.00 98 1017.0
20260503201545 13 119 0.0 0.0 0.00 0.00 0.00 98 1017.0
20260503201045 13 119 0.0 0.0 0.00 0.00 0.00 98 1016.9
20260503200545 13 119 0.0 0.0 0.00 0.00 0.00 98 1016.9
20260503200045 13 119 0.0 0.0 0.00 0.00 0.00 98 1016.8
20260503195545 13 119 0.0 0.0 0.00 0.00 0.00 98 1016.6
20260503195045 13 119 0.0 0.0 0.00 0.00 0.00 98 1016.5
20260503194545 13 119 0.0 0.0 0.00 0.00 0.00 98 1016.5
20260503194045 13 119 0.0 0.0 0.00 0.00 0.00 98 1016.6
20260503193545 13 119 0.0 0.0 0.00 0.00 0.00 98 1016.5
20260503193045 13 119 0.0 0.0 0.00 0.00 0.00 98 1016.3
20260503192545 13 119 0.0 0.0 0.00 0.00 0.00 98 1016.5
20260503192045 13 119 0.0 0.0 0.00 0.00 0.00 98 1016.3
20260503191545 13 119 0.0 0.0 0.00 0.00 0.00 98 1016.3
20260503191045 13 119 0.0 0.0 0.00 0.00 0.00 98 1016.4
20260503190545 13 119 0.0 0.0 0.00 0.00 0.00 98 1016.4
20260503190045 13 119 0.0 0.0 0.00 0.00 0.00 98 1016.3
20260503185545 13 119 0.0 0.0 0.00 0.00 0.00 98 1016.5
20260503185045 13 119 0.0 0.0 0.00 0.00 0.00 98 1016.5
20260503184545 13 119 0.0 0.0 0.00 0.00 0.00 98 1016.4
20260503184045 13 119 0.0 0.0 0.00 0.00 0.00 98 1016.4
20260503183545 13 119 0.0 0.0 0.00 0.00 0.00 98 1016.5
20260503183045 13 119 0.0 0.0 0.00 0.00 0.00 98 1016.4
20260503182545 13 119 0.0 0.0 0.00 0.00 0.00 98 1016.3
20260503182045 13 119 0.0 0.0 0.00 0.00 0.00 98 1016.4
20260503181545 13 119 0.0 0.0 0.00 0.00 0.00 98 1016.4
20260503181045 13 119 0.0 0.0 0.00 0.00 0.00 98 1016.3
20260503180545 13 119 0.0 0.0 0.00 0.00 0.00 98 1016.5
20260503180045 12 119 0.0 0.0 0.00 0.00 0.00 98 1016.4
20260503175545 12 119 0.0 0.0 0.00 0.00 0.00 98 1016.3
20260503175045 12 119 0.0 0.0 0.00 0.00 0.00 98 1016.3